Time,TemperatureF,DewpointF,PressureIn,WindDirection,WindDirectionDegrees,WindSpeedMPH,WindSpeedGustMPH,Humidity,HourlyPrecipIn,Conditions,Clouds,dailyrainin,SoftwareType,DateUTC
2013-05-18 00:03:00,62.0,43.0,30.06,East,101,2.0,7.0,50,0.00,,,0.00,,2013-05-18 04:03:00,
2013-05-18 00:12:00,62.0,43.0,30.06,East,101,2.0,7.0,50,0.00,,,0.00,,2013-05-18 04:12:00,
2013-05-18 00:23:00,61.0,43.0,30.06,ENE,65,1.0,5.0,51,0.00,,,0.00,,2013-05-18 04:23:00,
2013-05-18 00:33:00,61.0,43.0,30.06,NE,47,0.0,4.0,51,0.00,,,0.00,,2013-05-18 04:33:00,
2013-05-18 00:43:00,61.0,43.0,30.06,NE,47,0.0,4.0,51,0.00,,,0.00,,2013-05-18 04:43:00,
2013-05-18 00:52:00,60.0,42.0,30.05,NE,49,1.0,4.0,51,0.00,,,0.00,,2013-05-18 04:52:00,
2013-05-18 01:02:00,60.0,42.0,30.06,NE,49,1.0,3.0,52,0.00,,,0.00,,2013-05-18 05:02:00,
2013-05-18 01:13:00,60.0,42.0,30.06,NE,49,1.0,3.0,52,0.00,,,0.00,,2013-05-18 05:13:00,
2013-05-18 01:22:00,59.0,41.0,30.06,NE,44,2.0,5.0,52,0.00,,,0.00,,2013-05-18 05:22:00,
2013-05-18 01:32:00,59.0,42.0,30.05,NE,47,1.0,4.0,53,0.00,,,0.00,,2013-05-18 05:32:00,
2013-05-18 01:42:00,59.0,42.0,30.05,NE,47,1.0,4.0,53,0.00,,,0.00,,2013-05-18 05:42:00,
2013-05-18 01:52:00,59.0,42.0,30.05,ENE,63,3.0,7.0,54,0.00,,,0.00,,2013-05-18 05:52:00,
2013-05-18 02:02:00,59.0,42.0,30.04,NE,39,3.0,8.0,53,0.00,,,0.00,,2013-05-18 06:02:00,
2013-05-18 02:11:00,59.0,42.0,30.04,NE,39,3.0,8.0,53,0.00,,,0.00,,2013-05-18 06:11:00,
2013-05-18 02:22:00,59.0,41.0,30.04,NE,34,3.0,9.0,52,0.00,,,0.00,,2013-05-18 06:22:00,
2013-05-18 02:32:00,59.0,41.0,30.04,ENE,66,5.0,9.0,52,0.00,,,0.00,,2013-05-18 06:32:00,
2013-05-18 02:42:00,59.0,41.0,30.04,ENE,66,5.0,9.0,52,0.00,,,0.00,,2013-05-18 06:42:00,
2013-05-18 02:52:00,58.0,40.0,30.04,ENE,59,2.0,6.0,52,0.00,,,0.00,,2013-05-18 06:52:00,
2013-05-18 03:01:00,58.0,40.0,30.03,ENE,62,2.0,8.0,51,0.00,,,0.00,,2013-05-18 07:01:00,
2013-05-18 03:12:00,58.0,40.0,30.03,ENE,62,2.0,8.0,51,0.00,,,0.00,,2013-05-18 07:12:00,
2013-05-18 03:21:00,58.0,40.0,30.03,East,82,3.0,8.0,51,0.00,,,0.00,,2013-05-18 07:21:00,
2013-05-18 03:32:00,58.0,39.0,30.03,ENE,61,3.0,10.0,50,0.00,,,0.00,,2013-05-18 07:32:00,
2013-05-18 03:42:00,58.0,39.0,30.03,ENE,61,3.0,10.0,50,0.00,,,0.00,,2013-05-18 07:42:00,
2013-05-18 03:53:00,57.0,40.0,30.03,ESE,117,2.0,8.0,52,0.00,,,0.00,,2013-05-18 07:53:00,
2013-05-18 04:01:00,57.0,40.0,30.04,ESE,119,0.0,4.0,53,0.00,,,0.00,,2013-05-18 08:01:00,
2013-05-18 04:11:00,57.0,40.0,30.04,ESE,119,0.0,4.0,53,0.00,,,0.00,,2013-05-18 08:11:00,
2013-05-18 04:21:00,57.0,41.0,30.04,ENE,73,0.0,4.0,55,0.00,,,0.00,,2013-05-18 08:21:00,
2013-05-18 04:32:00,56.0,41.0,30.04,East,80,3.0,6.0,56,0.00,,,0.00,,2013-05-18 08:32:00,
2013-05-18 04:42:00,56.0,41.0,30.04,East,80,3.0,6.0,56,0.00,,,0.00,,2013-05-18 08:42:00,
2013-05-18 04:52:00,56.0,41.0,30.04,ENE,61,3.0,8.0,57,0.00,,,0.00,,2013-05-18 08:52:00,
2013-05-18 05:02:00,56.0,41.0,30.04,East,92,1.0,7.0,58,0.00,,,0.00,,2013-05-18 09:02:00,
2013-05-18 05:12:00,56.0,41.0,30.04,East,92,1.0,7.0,58,0.00,,,0.00,,2013-05-18 09:12:00,
2013-05-18 05:22:00,56.0,42.0,30.04,ENE,57,2.0,4.0,59,0.00,,,0.00,,2013-05-18 09:22:00,
2013-05-18 05:33:00,56.0,42.0,30.04,NE,40,3.0,5.0,60,0.00,,,0.00,,2013-05-18 09:33:00,
2013-05-18 05:43:00,56.0,42.0,30.04,NE,40,3.0,5.0,60,0.00,,,0.00,,2013-05-18 09:43:00,
2013-05-18 05:53:00,55.0,42.0,30.04,NE,42,2.0,5.0,62,0.00,,,0.00,,2013-05-18 09:53:00,
2013-05-18 06:03:00,55.0,43.0,30.04,NE,43,1.0,3.0,63,0.00,,,0.00,,2013-05-18 10:03:00,
2013-05-18 06:12:00,55.0,43.0,30.04,NE,43,1.0,3.0,63,0.00,,,0.00,,2013-05-18 10:12:00,
2013-05-18 06:23:00,55.0,43.0,30.05,ENE,67,0.0,3.0,64,0.00,,,0.00,,2013-05-18 10:23:00,
2013-05-18 06:33:00,55.0,43.0,30.05,NNE,31,3.0,6.0,65,0.00,,,0.00,,2013-05-18 10:33:00,
2013-05-18 06:42:00,55.0,43.0,30.05,NNE,31,3.0,6.0,65,0.00,,,0.00,,2013-05-18 10:42:00,
2013-05-18 06:53:00,55.0,44.0,30.06,NE,51,3.0,7.0,66,0.00,,,0.00,,2013-05-18 10:53:00,
2013-05-18 07:03:00,55.0,44.0,30.06,NNE,22,2.0,7.0,67,0.00,,,0.00,,2013-05-18 11:03:00,
2013-05-18 07:12:00,55.0,44.0,30.06,NNE,22,2.0,7.0,67,0.00,,,0.00,,2013-05-18 11:12:00,
2013-05-18 07:22:00,55.0,45.0,30.07,NE,49,3.0,7.0,68,0.00,,,0.00,,2013-05-18 11:22:00,
2013-05-18 07:33:00,55.0,44.0,30.07,NE,34,3.0,5.0,67,0.00,,,0.00,,2013-05-18 11:33:00,
2013-05-18 07:42:00,55.0,44.0,30.07,NE,34,3.0,5.0,67,0.00,,,0.00,,2013-05-18 11:42:00,
2013-05-18 07:52:00,56.0,45.0,30.07,ENE,77,2.0,5.0,67,0.00,,,0.00,,2013-05-18 11:52:00,
2013-05-18 08:02:00,56.0,45.0,30.07,ENE,61,1.0,3.0,67,0.00,,,0.00,,2013-05-18 12:02:00,
2013-05-18 08:12:00,56.0,45.0,30.07,ENE,61,1.0,3.0,67,0.00,,,0.00,,2013-05-18 12:12:00,
2013-05-18 08:23:00,56.0,45.0,30.08,NNE,33,4.0,6.0,67,0.00,,,0.00,,2013-05-18 12:23:00,
2013-05-18 08:33:00,57.0,46.0,30.09,NE,46,5.0,8.0,67,0.00,,,0.00,,2013-05-18 12:33:00,
2013-05-18 08:42:00,57.0,46.0,30.09,NE,46,5.0,8.0,67,0.00,,,0.00,,2013-05-18 12:42:00,
2013-05-18 08:52:00,57.0,46.0,30.08,ENE,64,3.0,8.0,66,0.00,,,0.00,,2013-05-18 12:52:00,
2013-05-18 09:01:00,57.0,46.0,30.08,NE,40,4.0,8.0,67,0.00,,,0.00,,2013-05-18 13:01:00,
2013-05-18 09:11:00,57.0,46.0,30.08,NE,40,4.0,8.0,67,0.00,,,0.00,,2013-05-18 13:11:00,
2013-05-18 09:21:00,58.0,47.0,30.07,ENE,71,3.0,6.0,67,0.00,,,0.00,,2013-05-18 13:21:00,
2013-05-18 09:33:00,59.0,47.0,30.07,ENE,61,1.0,4.0,65,0.00,,,0.00,,2013-05-18 13:33:00,
2013-05-18 09:43:00,59.0,47.0,30.07,ENE,61,1.0,4.0,65,0.00,,,0.00,,2013-05-18 13:43:00,
2013-05-18 09:53:00,61.0,49.0,30.07,East,81,1.0,8.0,64,0.00,,,0.00,,2013-05-18 13:53:00,
2013-05-18 10:03:00,63.0,50.0,30.07,ESE,119,2.0,7.0,63,0.00,,,0.00,,2013-05-18 14:03:00,
2013-05-18 10:12:00,63.0,50.0,30.07,ESE,119,2.0,7.0,63,0.00,,,0.00,,2013-05-18 14:12:00,
2013-05-18 10:22:00,64.0,50.0,30.07,East,86,2.0,7.0,60,0.00,,,0.00,,2013-05-18 14:22:00,
2013-05-18 10:33:00,64.0,50.0,30.06,ENE,62,3.0,5.0,60,0.00,,,0.00,,2013-05-18 14:33:00,
2013-05-18 10:42:00,64.0,50.0,30.06,ENE,62,3.0,5.0,60,0.00,,,0.00,,2013-05-18 14:42:00,
2013-05-18 10:54:00,65.0,51.0,30.06,ESE,115,3.0,5.0,60,0.00,,,0.00,,2013-05-18 14:54:00,
2013-05-18 11:03:00,66.0,51.0,30.06,East,82,4.0,7.0,59,0.00,,,0.00,,2013-05-18 15:03:00,
2013-05-18 11:13:00,66.0,51.0,30.06,East,82,4.0,7.0,59,0.00,,,0.00,,2013-05-18 15:13:00,
2013-05-18 11:23:00,66.0,51.0,30.06,ESE,111,3.0,6.0,59,0.00,,,0.00,,2013-05-18 15:23:00,
2013-05-18 11:33:00,67.0,53.0,30.06,ESE,104,2.0,5.0,60,0.00,,,0.00,,2013-05-18 15:33:00,
2013-05-18 11:43:00,67.0,53.0,30.06,ESE,104,2.0,5.0,60,0.00,,,0.00,,2013-05-18 15:43:00,
2013-05-18 11:54:00,69.0,56.0,30.06,East,87,1.0,3.0,63,0.00,,,0.00,,2013-05-18 15:54:00,
2013-05-18 12:03:00,69.0,55.0,30.06,ENE,59,2.0,4.0,61,0.00,,,0.00,,2013-05-18 16:03:00,
2013-05-18 12:13:00,69.0,55.0,30.06,ENE,59,2.0,4.0,61,0.00,,,0.00,,2013-05-18 16:13:00,
2013-05-18 12:22:00,70.0,56.0,30.06,NE,36,0.0,5.0,61,0.00,,,0.00,,2013-05-18 16:22:00,
2013-05-18 12:33:00,71.0,55.0,30.05,SE,142,4.0,7.0,58,0.00,,,0.00,,2013-05-18 16:33:00,
2013-05-18 12:42:00,71.0,55.0,30.05,SE,142,4.0,7.0,58,0.00,,,0.00,,2013-05-18 16:42:00,
2013-05-18 12:52:00,72.0,57.0,30.05,SE,135,1.0,6.0,59,0.00,,,0.00,,2013-05-18 16:52:00,
2013-05-18 13:02:00,72.0,56.0,30.05,SSE,161,3.0,6.0,57,0.00,,,0.00,,2013-05-18 17:02:00,
2013-05-18 13:12:00,72.0,56.0,30.05,SSE,161,3.0,6.0,57,0.00,,,0.00,,2013-05-18 17:12:00,
2013-05-18 13:22:00,73.0,57.0,30.05,East,101,1.0,5.0,58,0.00,,,0.00,,2013-05-18 17:22:00,
2013-05-18 13:32:00,73.0,57.0,30.04,South,175,2.0,6.0,58,0.00,,,0.00,,2013-05-18 17:32:00,
2013-05-18 13:42:00,73.0,57.0,30.04,South,175,2.0,6.0,58,0.00,,,0.00,,2013-05-18 17:42:00,
2013-05-18 13:52:00,73.0,57.0,30.04,SSE,148,1.0,5.0,58,0.00,,,0.00,,2013-05-18 17:52:00,
2013-05-18 14:01:00,73.0,56.0,30.04,SE,134,1.0,5.0,56,0.00,,,0.00,,2013-05-18 18:01:00,
2013-05-18 14:12:00,73.0,56.0,30.04,SE,134,1.0,5.0,56,0.00,,,0.00,,2013-05-18 18:12:00,
2013-05-18 14:21:00,75.0,57.0,30.03,SE,138,5.0,7.0,54,0.00,,,0.00,,2013-05-18 18:21:00,
2013-05-18 14:32:00,75.0,57.0,30.03,SSE,148,3.0,9.0,54,0.00,,,0.00,,2013-05-18 18:32:00,
2013-05-18 14:42:00,75.0,57.0,30.03,SSE,148,3.0,9.0,54,0.00,,,0.00,,2013-05-18 18:42:00,
2013-05-18 14:52:00,75.0,57.0,30.02,ESE,106,5.0,9.0,54,0.00,,,0.00,,2013-05-18 18:52:00,
2013-05-18 15:02:00,76.0,58.0,30.01,South,169,6.0,9.0,54,0.00,,,0.00,,2013-05-18 19:02:00,
2013-05-18 15:12:00,76.0,58.0,30.01,South,169,6.0,9.0,54,0.00,,,0.00,,2013-05-18 19:12:00,
2013-05-18 15:22:00,78.0,59.0,30.01,ESE,102,4.0,13.0,52,0.00,,,0.00,,2013-05-18 19:22:00,
2013-05-18 15:32:00,78.0,59.0,30.01,SE,142,0.0,9.0,53,0.00,,,0.00,,2013-05-18 19:32:00,
2013-05-18 15:42:00,78.0,59.0,30.01,SE,142,0.0,9.0,53,0.00,,,0.00,,2013-05-18 19:42:00,
2013-05-18 15:52:00,78.0,58.0,30.00,South,182,6.0,10.0,50,0.00,,,0.00,,2013-05-18 19:52:00,
2013-05-18 16:02:00,78.0,58.0,30.00,SE,144,2.0,10.0,51,0.00,,,0.00,,2013-05-18 20:02:00,
2013-05-18 16:11:00,78.0,58.0,30.00,SE,144,2.0,10.0,51,0.00,,,0.00,,2013-05-18 20:11:00,
2013-05-18 16:22:00,80.0,59.0,29.99,SSE,153,6.0,12.0,48,0.00,,,0.00,,2013-05-18 20:22:00,
2013-05-18 16:32:00,79.0,58.0,29.99,SE,135,7.0,12.0,49,0.00,,,0.00,,2013-05-18 20:32:00,
2013-05-18 16:42:00,79.0,58.0,29.99,SE,135,7.0,12.0,49,0.00,,,0.00,,2013-05-18 20:42:00,
2013-05-18 16:52:00,80.0,58.0,29.99,South,177,7.0,11.0,47,0.00,,,0.00,,2013-05-18 20:52:00,
2013-05-18 17:01:00,80.0,57.0,29.98,South,173,6.0,14.0,46,0.00,,,0.00,,2013-05-18 21:01:00,
2013-05-18 17:12:00,80.0,57.0,29.98,South,173,6.0,14.0,46,0.00,,,0.00,,2013-05-18 21:12:00,
2013-05-18 17:22:00,80.0,58.0,29.98,SSE,159,10.0,14.0,47,0.00,,,0.00,,2013-05-18 21:22:00,
2013-05-18 17:33:00,79.0,57.0,29.98,SSE,166,6.0,10.0,47,0.00,,,0.00,,2013-05-18 21:33:00,
2013-05-18 17:43:00,79.0,57.0,29.98,SSE,166,6.0,10.0,47,0.00,,,0.00,,2013-05-18 21:43:00,
2013-05-18 17:53:00,79.0,58.0,29.98,ESE,117,3.0,8.0,49,0.00,,,0.00,,2013-05-18 21:53:00,
2013-05-18 18:03:00,79.0,58.0,29.97,SSE,158,4.0,9.0,48,0.00,,,0.00,,2013-05-18 22:03:00,
2013-05-18 18:13:00,79.0,58.0,29.97,SSE,158,4.0,9.0,48,0.00,,,0.00,,2013-05-18 22:13:00,
2013-05-18 18:23:00,80.0,59.0,29.97,SSE,152,5.0,11.0,48,0.00,,,0.00,,2013-05-18 22:23:00,
2013-05-18 18:33:00,79.0,59.0,29.97,SE,128,0.0,7.0,50,0.00,,,0.00,,2013-05-18 22:33:00,
2013-05-18 18:42:00,80.0,59.0,29.97,SSE,159,4.0,9.0,48,0.00,,,0.00,,2013-05-18 22:42:00,
2013-05-18 18:53:00,80.0,59.0,29.97,SSE,159,4.0,9.0,48,0.00,,,0.00,,2013-05-18 22:53:00,
2013-05-18 19:02:00,80.0,59.0,29.97,South,171,4.0,8.0,48,0.00,,,0.00,,2013-05-18 23:02:00,
2013-05-18 19:12:00,80.0,59.0,29.97,South,171,4.0,8.0,48,0.00,,,0.00,,2013-05-18 23:12:00,
2013-05-18 19:22:00,80.0,59.0,29.97,SSE,150,5.0,7.0,48,0.00,,,0.00,,2013-05-18 23:22:00,
2013-05-18 19:32:00,79.0,58.0,29.97,ESE,112,3.0,7.0,49,0.00,,,0.00,,2013-05-18 23:32:00,
2013-05-18 19:42:00,79.0,58.0,29.97,ESE,112,3.0,7.0,49,0.00,,,0.00,,2013-05-18 23:42:00,
2013-05-18 19:53:00,79.0,59.0,29.97,East,80,4.0,8.0,51,0.00,,,0.00,,2013-05-18 23:53:00,
2013-05-18 20:01:00,78.0,58.0,29.97,ESE,119,2.0,6.0,51,0.00,,,0.00,,2013-05-19 00:01:00,
2013-05-18 20:12:00,78.0,58.0,29.97,ESE,119,2.0,6.0,51,0.00,,,0.00,,2013-05-19 00:12:00,
2013-05-18 20:21:00,77.0,59.0,29.97,ENE,59,4.0,9.0,53,0.00,,,0.00,,2013-05-19 00:21:00,
2013-05-18 20:32:00,76.0,58.0,29.97,ENE,78,1.0,3.0,54,0.00,,,0.00,,2013-05-19 00:32:00,
2013-05-18 20:41:00,76.0,58.0,29.97,ENE,78,1.0,3.0,54,0.00,,,0.00,,2013-05-19 00:41:00,
2013-05-18 20:52:00,75.0,58.0,29.97,East,91,1.0,4.0,55,0.00,,,0.00,,2013-05-19 00:52:00,
2013-05-18 21:01:00,74.0,58.0,29.97,ENE,71,1.0,5.0,57,0.00,,,0.00,,2013-05-19 01:01:00,
2013-05-18 21:11:00,74.0,58.0,29.97,ENE,71,1.0,5.0,57,0.00,,,0.00,,2013-05-19 01:11:00,
2013-05-18 21:22:00,74.0,58.0,29.97,ENE,73,1.0,3.0,58,0.00,,,0.00,,2013-05-19 01:22:00,
2013-05-18 21:32:00,73.0,58.0,29.97,ENE,65,0.0,6.0,60,0.00,,,0.00,,2013-05-19 01:32:00,
2013-05-18 21:42:00,73.0,58.0,29.97,ENE,65,0.0,6.0,60,0.00,,,0.00,,2013-05-19 01:42:00,
2013-05-18 21:52:00,73.0,58.0,29.97,East,101,0.0,5.0,60,0.00,,,0.00,,2013-05-19 01:52:00,
2013-05-18 22:01:00,72.0,58.0,29.97,ENE,72,1.0,7.0,61,0.00,,,0.00,,2013-05-19 02:01:00,
2013-05-18 22:11:00,72.0,58.0,29.97,ENE,72,1.0,7.0,61,0.00,,,0.00,,2013-05-19 02:11:00,
2013-05-18 22:22:00,71.0,55.0,29.98,East,95,4.0,9.0,57,0.00,,,0.00,,2013-05-19 02:22:00,
2013-05-18 22:32:00,70.0,54.0,29.98,East,95,3.0,7.0,57,0.00,,,0.00,,2013-05-19 02:32:00,
2013-05-18 22:42:00,70.0,54.0,29.98,East,95,3.0,7.0,57,0.00,,,0.00,,2013-05-19 02:42:00,
2013-05-18 22:52:00,69.0,54.0,29.98,ESE,110,2.0,6.0,58,0.00,,,0.00,,2013-05-19 02:52:00,
2013-05-18 23:01:00,69.0,54.0,29.98,East,100,3.0,7.0,59,0.00,,,0.00,,2013-05-19 03:01:00,
2013-05-18 23:11:00,69.0,54.0,29.98,East,100,3.0,7.0,59,0.00,,,0.00,,2013-05-19 03:11:00,
2013-05-18 23:22:00,68.0,53.0,29.98,East,101,3.0,9.0,59,0.00,,,0.00,,2013-05-19 03:22:00,
2013-05-18 23:33:00,68.0,53.0,29.98,East,96,1.0,6.0,59,0.00,,,0.00,,2013-05-19 03:33:00,
2013-05-18 23:42:00,68.0,53.0,29.98,East,96,1.0,6.0,59,0.00,,,0.00,,2013-05-19 03:42:00,
2013-05-18 23:53:00,67.0,53.0,29.98,East,96,0.0,3.0,60,0.00,,,0.00,,2013-05-19 03:53:00,